Regional Weather Roundup
Issued by NWS Upton, NY

Current Version | Previous Version | Text Only | Print | Product List | Glossary On
Versions: 1 2 3 4 5 6 7 8 9 10 11 12 13 14 15 16 17 18 19 20 21 22 23 24 25 26 27 28 29 30 31 32 33 34 35 36 37 38 39 40 41 42 43 44 45 46 47 48 49 50
000
ASUS41 KOKX 030508
RWROKX

REGIONAL WEATHER ROUNDUP
NATIONAL WEATHER SERVICE NEW YORK NY
100 AM EDT FRI JUL 03 2015

NOTE: "FAIR" INDICATES FEW OR NO CLOUDS BELOW 12,000 FEET WITH NO
SIGNIFICANT WEATHER AND/OR OBSTRUCTIONS TO VISIBILITY.

NYZ071-072-176-178-NJZ106-104-030600-
NEW YORK CITY METRO AREA


CITY           SKY/WX    TMP DP  RH WIND       PRES   REMARKS
CENTRAL PARK   PTCLDY    71  61  70 CALM      29.92R
LAGUARDIA APRT MOCLDY    72  62  71 SW5       29.88R
KENNEDY INTL   PTCLDY    69  64  84 SW6       29.90R
NEWARK/LIBERTY MOCLDY    69  64  84 SW5       29.89R
BRNX BOT. GARD   N/A     68  61  77 NW1       29.91R
TETERBORO      PTCLDY    69  61  75 CALM      29.89R
$$

NYZ177-179-078>081-030600-
LONG ISLAND NEW YORK

CITY           SKY/WX    TMP DP  RH WIND       PRES   REMARKS
FARMINGDALE    MOCLDY    68  65  90 W3        29.90R
ISLIP          CLOUDY    67  64  90 W3        29.88R
SHIRLEY        CLOUDY    66  64  93 CALM      29.90R
WESTHAMPTON    CLOUDY    65  65 100 CALM      29.90R
MONTAUK POINT    N/A     67  63  87 CALM      29.88F
$$

NYZ052-065-067-030600-
HUDSON VALLEY

CITY           SKY/WX    TMP DP  RH WIND       PRES   REMARKS
WHITE PLAINS   PTCLDY    66  62  87 N6        29.90R
NEWBURGH       PTCLDY    64  55  72 E6        29.94R
MONTGOMERY     CLEAR     62  60  93 CALM      29.92R
POUGHKEEPSIE   CLEAR     64  57  78 CALM      29.91R
ALBANY         PTCLDY    58  46  64 W3        29.93S
$$

NJZ001-105-106-008-010-013-015-019>022-104-030600-
NEW JERSEY

CITY           SKY/WX    TMP DP  RH WIND       PRES   REMARKS
NEWARK/LIBERTY MOCLDY    69  64  84 SW5       29.89R
TETERBORO      PTCLDY    69  61  75 CALM      29.89R
CALDWELL       PTCLDY    66  61  84 CALM      29.91R
MORRISTOWN     MOCLDY    64  61  88 CALM      29.91R
SOMERVILLE     PTCLDY    65  62  90 CALM      29.89R
SUSSEX         CLEAR     60  58  92 CALM      29.93R
ANDOVER          N/A     60  60 100 CALM      29.94R
TRENTON        MOCLDY    67  64  90 NW3       29.90R
MILLVILLE      FOG       62  62 100 W3        29.91R VSB 1/2
ATLANTIC CITY  CLEAR     63  62  97 CALM      29.90R FOG
WRIGHTSTOWN    CLEAR     64  64  99 S2        29.88S
TOMS RIVER     MOCLDY    63  61  94 CALM      29.91R
BELMAR         PTCLDY    66  61  82 CALM      29.90S
$$

PAZ047>061-062-071-030600-
EASTERN PENNSYLVANIA

CITY           SKY/WX    TMP DP  RH WIND       PRES   REMARKS
PHILADELPHIA   PTCLDY    70  64  81 CALM      29.91R
ALLENTOWN      CLEAR     65  62  90 CALM      29.92R
SCRANTON       MOCLDY    60  56  86 CALM      29.96R
$$

CTZ002-004>006-009-010-012-RIZ004-006-007-MAZ004-011-015-030600-
SOUTHERN NEW ENGLAND
 IN CT

CITY           SKY/WX    TMP DP  RH WIND       PRES   REMARKS
BRADLEY INTL   CLOUDY    67  52  58 NW7       29.88S
HARTFORD       CLOUDY    67  58  72 SE7       29.89R
DANBURY        PTCLDY    62  57  83 SW5       29.92R
WTRBRY/OXFORD  CLOUDY    63  52  67 N5        29.92S
BRIDGEPORT     CLOUDY    71  62  73 CALM      29.89R
MERIDEN        CLOUDY    67  59  75 NW5       29.89S
NEW HAVEN      CLOUDY    67  62  84 N5        29.89R
CHESTER        FAIR      66  63  88 NW3       29.90S
GROTON         CLOUDY    67  62  84 NE6       29.85F
WILLIMANTIC    CLOUDY    65  63  93 CALM      29.89S

 IN RI

CITY           SKY/WX    TMP DP  RH WIND       PRES   REMARKS
PROVIDENCE     CLOUDY    70  60  70 W5        29.88R
BLOCK ISLAND   CLOUDY    64  61  88 NW3       29.87F
WESTERLY       CLOUDY    67  61  81 CALM      29.88S

 IN MA

CITY           SKY/WX    TMP DP  RH WIND       PRES   REMARKS
BOSTON         CLOUDY    70  56  61 NW8       29.87R
WORCESTER      CLOUDY    64  53  67 NW8       29.91R
WESTFIELD      MOCLDY    60  58  92 CALM      29.90R
PROVINCETOWN   CLOUDY    64   9  11 CALM      29.86S
NANTUCKET      LGT RAIN  66  65  96 CALM      29.85F FOG
$$

ANZ330-335-338-340-345-350-353-355-030600-
COASTAL MARINE OBSERVATIONS


STATION/POSITION TIME  SKY/WX   TEMP    WIND        PRES    VSBY  WAVE
                                AIR SEA DIR/SP/G                  HT/PER
                 (UTC)          (F)     (DEG/KT/KT) (MB)    (MI)  (FT/S)
NY HARB ENTRANCE 0450            69 69  260/  4/  6 1011.8          3/ 8
4S FIRE IS       0403               69                N/A           3/ 8
20S FIRE ISLAND  0450            67 67   20/  4/  4 1011.7          3/ 8
GREAT SOUTH BAY  0400            69 75  210/  6/ 10   N/A
23SW MTP         0450            66 67  220/  2/  6 1011.4          3/ 8
HUDSON CANYON    NOT AVBL
KINGS POINT      0400            71 66  160/  4/  4 1011.1
CENTRAL LI SOUND NOT AVBL
EASTERN LI SOUND 0400            66 64  200/  4/  6   N/A
ROBBINS REEF     0400            70     270/  5/  6 1010.8
$$


>>>>>>>>>>>>>>>>>>>>>>>>>>>> KEY <<<<<<<<<<<<<<<<<<<<<<<<<<<
>                                                          <
>     SKY/WX - SKY CONDITION/PRESENT WEATHER               <
>     TMP    - TEMPERATURE IN FAHRENHEIT                   <
>     DP     - DEWPOINT IN FAHRENHEIT                      <
>     RH     - RELATIVE HUMIDITY IN PERCENT                <
>     WIND   - DIRECTION AND SPEED IN MPH                  <
>     PRES   - MEAN SEA LEVEL PRESSURE IN INCHES OF HG     <
>     WCI    - WIND CHILL INDEX                            <
>     VSB    - VISIBILITY IN MILES                         <
>     HX     - HEAT INDEX                                  <
>     TC     - TEMPERATURE IN CELSIUS                      <
>     VRB    - VARIABLE WIND DIRECTION                     <
>                                                          <
>>>>>>>>>>>>>>>>>>>>>>>>>>>> KEY <<<<<<<<<<<<<<<<<<<<<<<<<<<




USA.gov is the U.S. government's official web portal to all federal, state and local government web resources and services.